Location: D�derode
(51.8092°N, 10.1065°E)
Time: 04:23:54
(UTC+00:00)

Cosmos 1869 Rocket - Pass Details

Date: 23 April 2021
Orbit: 604 x 634 km, 82.5° (Epoch: 11 May)

Event Time Altitude Azimuth Distance (km) Brightness Sun altitude
Rises 23:26:56 0° 349° (NNW) 2,894 8.3 -25.3°
Reaches altitude 10° 23:29:10 10° 349° (N) 1,980 7.1 -25.3°
Enters shadow 23:33:09 73° 343° (NNW) 641 3.6 -25.2°
